Location: Arcizac
(43.0933°N, 0.0112°E)
Time: 09:27:12
(UTC+00:00)

FengYun 1-2 T - Pass Details

Date: 14 December 2019
Orbit: 847 x 880 km, 98.7° (Epoch: 21 January)

Event Time Altitude Azimuth Distance (km) Brightness Sun altitude
Rises 18:14:54 0° 168° (SSE) 3,394 7.4 -19.2°
Reaches altitude 10° 18:17:15 10° 169° (S) 2,464 6.7 -19.6°
Maximum altitude 18:22:43 79° 256° (WSW) 869 4.3 -20.6°
Drops below altitude 10° 18:28:16 10° 344° (NNW) 2,493 6.7 -21.6°
Sets 18:30:40 0° 346° (NNW) 3,438 7.4 -22.0°
